Time,TemperatureF,DewpointF,PressureIn,WindDirection,WindDirectionDegrees,WindSpeedMPH,WindSpeedGustMPH,Humidity,HourlyPrecipIn,Conditions,Clouds,dailyrainin,SoftwareType,DateUTC
2013-09-05 00:00:00,63.1,56.8,30.12,West,270,0.0,0.0,80,0.00,,,0.00,WUHU21623XXSP,2013-09-05 05:00:00,
2013-09-05 00:05:00,63.1,57.2,30.12,West,270,0.0,0.0,81,0.00,,,0.00,WUHU21623XXSP,2013-09-05 05:05:00,
2013-09-05 00:10:00,63.1,57.2,30.12,West,270,0.0,0.0,81,0.00,,,0.00,WUHU21623XXSP,2013-09-05 05:10:00,
2013-09-05 00:15:00,63.0,57.0,30.12,West,270,0.0,0.0,81,0.00,,,0.00,WUHU21623XXSP,2013-09-05 05:15:00,
2013-09-05 00:20:00,62.8,56.8,30.12,West,270,0.0,0.0,81,0.00,,,0.00,WUHU21623XXSP,2013-09-05 05:20:00,
2013-09-05 00:25:00,62.4,56.8,30.12,West,270,0.0,0.0,82,0.00,,,0.00,WUHU21623XXSP,2013-09-05 05:25:00,
2013-09-05 00:30:00,62.4,56.8,30.12,West,270,0.0,0.0,82,0.00,,,0.00,WUHU21623XXSP,2013-09-05 05:30:00,
2013-09-05 00:35:00,62.2,56.6,30.12,West,270,0.0,0.0,82,0.00,,,0.00,WUHU21623XXSP,2013-09-05 05:35:00,
2013-09-05 00:40:00,62.1,56.8,30.12,West,270,0.0,0.0,83,0.00,,,0.00,WUHU21623XXSP,2013-09-05 05:40:00,
2013-09-05 00:45:00,61.9,56.6,30.12,West,270,0.0,0.0,83,0.00,,,0.00,WUHU21623XXSP,2013-09-05 05:45:00,
2013-09-05 00:50:00,61.7,56.5,30.12,West,270,0.0,0.0,83,0.00,,,0.00,WUHU21623XXSP,2013-09-05 05:50:00,
2013-09-05 00:55:00,61.7,56.5,30.12,West,270,0.0,0.0,83,0.00,,,0.00,WUHU21623XXSP,2013-09-05 05:55:00,
2013-09-05 01:00:00,61.5,56.6,30.12,West,270,0.0,0.0,84,0.00,,,0.00,WUHU21623XXSP,2013-09-05 06:00:00,
2013-09-05 01:05:00,61.3,56.8,30.12,West,270,0.0,0.0,85,0.00,,,0.00,WUHU21623XXSP,2013-09-05 06:05:00,
2013-09-05 01:10:00,61.3,56.8,30.13,West,270,0.0,0.0,85,0.00,,,0.00,WUHU21623XXSP,2013-09-05 06:10:00,
2013-09-05 01:15:00,61.2,56.8,30.13,West,270,0.0,0.0,85,0.00,,,0.00,WUHU21623XXSP,2013-09-05 06:15:00,
2013-09-05 01:20:00,61.2,56.6,30.13,West,270,0.0,0.0,85,0.00,,,0.00,WUHU21623XXSP,2013-09-05 06:20:00,
2013-09-05 01:25:00,61.0,56.8,30.13,West,270,0.0,0.0,86,0.00,,,0.00,WUHU21623XXSP,2013-09-05 06:25:00,
2013-09-05 01:30:00,61.0,56.8,30.13,West,270,0.0,0.0,86,0.00,,,0.00,WUHU21623XXSP,2013-09-05 06:30:00,
2013-09-05 01:36:00,61.0,56.8,30.13,West,270,0.0,0.0,86,0.00,,,0.00,WUHU21623XXSP,2013-09-05 06:36:00,
2013-09-05 01:41:00,61.0,57.1,30.13,West,270,0.0,0.0,87,0.00,,,0.00,WUHU21623XXSP,2013-09-05 06:41:00,
2013-09-05 01:46:00,61.0,57.1,30.13,West,270,0.0,0.0,87,0.00,,,0.00,WUHU21623XXSP,2013-09-05 06:46:00,
2013-09-05 01:51:00,61.0,57.1,30.13,West,270,0.0,0.0,87,0.00,,,0.00,WUHU21623XXSP,2013-09-05 06:51:00,
2013-09-05 01:56:00,61.0,57.1,30.13,West,270,0.0,0.0,87,0.00,,,0.00,WUHU21623XXSP,2013-09-05 06:56:00,
2013-09-05 02:01:00,61.0,57.4,30.13,West,270,0.0,0.0,88,0.00,,,0.00,WUHU21623XXSP,2013-09-05 07:01:00,
2013-09-05 02:06:00,61.0,57.4,30.13,West,270,0.0,0.0,88,0.00,,,0.00,WUHU21623XXSP,2013-09-05 07:06:00,
2013-09-05 02:11:00,61.0,57.4,30.13,West,270,0.0,0.0,88,0.00,,,0.00,WUHU21623XXSP,2013-09-05 07:11:00,
2013-09-05 02:16:00,61.2,57.6,30.13,West,270,0.0,0.0,88,0.00,,,0.00,WUHU21623XXSP,2013-09-05 07:16:00,
2013-09-05 02:21:00,61.2,57.3,30.13,West,270,0.0,0.0,87,0.00,,,0.00,WUHU21623XXSP,2013-09-05 07:21:00,
2013-09-05 02:26:00,61.3,57.8,30.13,West,270,0.0,0.0,88,0.00,,,0.00,WUHU21623XXSP,2013-09-05 07:26:00,
2013-09-05 02:31:00,61.3,57.8,30.13,West,270,0.0,0.0,88,0.00,,,0.00,WUHU21623XXSP,2013-09-05 07:31:00,
2013-09-05 02:36:00,61.5,58.0,30.13,West,270,0.0,0.0,88,0.00,,,0.00,WUHU21623XXSP,2013-09-05 07:36:00,
2013-09-05 02:41:00,61.7,58.2,30.13,West,270,0.0,0.0,88,0.00,,,0.00,WUHU21623XXSP,2013-09-05 07:41:00,
2013-09-05 02:46:00,61.9,58.0,30.13,West,270,0.0,0.0,87,0.00,,,0.00,WUHU21623XXSP,2013-09-05 07:46:00,
2013-09-05 02:51:00,62.1,58.0,30.13,West,270,0.0,0.0,87,0.00,,,0.00,WUHU21623XXSP,2013-09-05 07:51:00,
2013-09-05 02:56:00,62.2,58.3,30.14,West,270,0.0,0.0,87,0.00,,,0.00,WUHU21623XXSP,2013-09-05 07:56:00,
2013-09-05 03:01:00,62.2,58.3,30.14,West,270,0.0,0.0,87,0.00,,,0.00,WUHU21623XXSP,2013-09-05 08:01:00,
2013-09-05 03:06:00,62.1,58.2,30.14,West,270,0.0,0.0,87,0.00,,,0.00,WUHU21623XXSP,2013-09-05 08:06:00,
2013-09-05 03:11:00,61.9,58.0,30.14,West,270,0.0,0.0,87,0.00,,,0.00,WUHU21623XXSP,2013-09-05 08:11:00,
2013-09-05 03:17:00,61.7,57.8,30.14,West,270,0.0,0.0,87,0.00,,,0.00,WUHU21623XXSP,2013-09-05 08:17:00,
2013-09-05 03:21:00,61.7,57.8,30.14,West,270,0.0,0.0,87,0.00,,,0.00,WUHU21623XXSP,2013-09-05 08:21:00,
2013-09-05 03:27:00,61.7,57.8,30.14,West,270,0.0,0.0,87,0.00,,,0.00,WUHU21623XXSP,2013-09-05 08:27:00,
2013-09-05 03:32:00,61.7,57.8,30.14,West,270,0.0,0.0,87,0.00,,,0.00,WUHU21623XXSP,2013-09-05 08:32:00,
2013-09-05 03:37:00,61.5,57.6,30.14,West,270,0.0,0.0,87,0.00,,,0.00,WUHU21623XXSP,2013-09-05 08:37:00,
2013-09-05 03:42:00,61.5,57.6,30.14,West,270,0.0,0.0,87,0.00,,,0.00,WUHU21623XXSP,2013-09-05 08:42:00,
2013-09-05 03:47:00,61.5,57.6,30.14,West,270,0.0,0.0,86,0.00,,,0.00,WUHU21623XXSP,2013-09-05 08:47:00,
2013-09-05 03:52:00,61.5,57.3,30.14,West,270,0.0,0.0,86,0.00,,,0.00,WUHU21623XXSP,2013-09-05 08:52:00,
2013-09-05 03:57:00,61.5,57.3,30.14,West,270,0.0,0.0,86,0.00,,,0.00,WUHU21623XXSP,2013-09-05 08:57:00,
2013-09-05 04:02:00,61.5,57.3,30.14,West,270,0.0,0.0,86,0.00,,,0.00,WUHU21623XXSP,2013-09-05 09:02:00,
2013-09-05 04:07:00,61.5,57.3,30.14,West,270,0.0,0.0,86,0.00,,,0.00,WUHU21623XXSP,2013-09-05 09:07:00,
2013-09-05 04:12:00,61.5,57.3,30.14,West,270,0.0,0.0,86,0.00,,,0.00,WUHU21623XXSP,2013-09-05 09:12:00,
2013-09-05 04:17:00,61.5,57.3,30.14,West,270,0.0,0.0,86,0.00,,,0.00,WUHU21623XXSP,2013-09-05 09:17:00,
2013-09-05 04:22:00,61.5,57.3,30.14,West,270,0.0,0.0,86,0.00,,,0.00,WUHU21623XXSP,2013-09-05 09:22:00,
2013-09-05 04:27:00,61.7,57.5,30.14,West,270,0.0,0.0,86,0.00,,,0.00,WUHU21623XXSP,2013-09-05 09:27:00,
2013-09-05 04:32:00,61.9,57.7,30.14,West,270,0.0,0.0,86,0.00,,,0.00,WUHU21623XXSP,2013-09-05 09:32:00,
2013-09-05 04:37:00,62.1,57.8,30.14,West,270,0.0,0.0,86,0.00,,,0.00,WUHU21623XXSP,2013-09-05 09:37:00,
2013-09-05 04:42:00,62.4,58.2,30.15,West,270,0.0,0.0,86,0.00,,,0.00,WUHU21623XXSP,2013-09-05 09:42:00,
2013-09-05 04:47:00,62.8,57.8,30.14,West,270,0.0,0.0,85,0.00,,,0.00,WUHU21623XXSP,2013-09-05 09:47:00,
2013-09-05 04:52:00,63.1,58.7,30.15,West,270,0.0,0.0,86,0.00,,,0.00,WUHU21623XXSP,2013-09-05 09:52:00,
2013-09-05 04:57:00,63.3,58.7,30.15,West,270,0.0,0.0,85,0.00,,,0.00,WUHU21623XXSP,2013-09-05 09:57:00,
2013-09-05 05:02:00,63.7,58.6,30.15,WNW,292,0.0,0.0,84,0.00,,,0.00,WUHU21623XXSP,2013-09-05 10:02:00,
2013-09-05 05:07:00,63.7,58.7,30.15,WNW,292,0.0,0.0,84,0.00,,,0.00,WUHU21623XXSP,2013-09-05 10:07:00,
2013-09-05 05:12:00,63.7,58.7,30.16,WNW,292,0.0,0.0,84,0.00,,,0.00,WUHU21623XXSP,2013-09-05 10:12:00,
2013-09-05 05:17:00,63.5,58.2,30.15,WNW,292,0.0,0.0,83,0.00,,,0.00,WUHU21623XXSP,2013-09-05 10:17:00,
2013-09-05 05:23:00,63.5,58.2,30.16,WNW,292,0.0,0.0,83,0.00,,,0.00,WUHU21623XXSP,2013-09-05 10:23:00,
2013-09-05 05:28:00,63.3,58.0,30.15,WNW,292,0.0,0.0,83,0.00,,,0.00,WUHU21623XXSP,2013-09-05 10:28:00,
2013-09-05 05:33:00,63.3,58.0,30.16,WNW,292,0.0,0.0,83,0.00,,,0.00,WUHU21623XXSP,2013-09-05 10:33:00,
2013-09-05 05:38:00,63.3,58.0,30.16,WNW,292,0.0,0.0,83,0.00,,,0.00,WUHU21623XXSP,2013-09-05 10:38:00,
2013-09-05 05:43:00,63.3,58.0,30.16,WNW,292,0.0,0.0,83,0.00,,,0.00,WUHU21623XXSP,2013-09-05 10:43:00,
2013-09-05 05:48:00,63.1,58.2,30.16,WNW,292,0.0,0.0,84,0.00,,,0.00,WUHU21623XXSP,2013-09-05 10:48:00,
2013-09-05 05:53:00,63.1,58.2,30.16,WNW,292,0.0,0.0,84,0.00,,,0.00,WUHU21623XXSP,2013-09-05 10:53:00,
2013-09-05 05:58:00,63.0,58.0,30.16,WNW,292,0.0,0.0,84,0.00,,,0.00,WUHU21623XXSP,2013-09-05 10:58:00,
2013-09-05 06:03:00,62.8,57.8,30.16,WNW,292,0.0,0.0,84,0.00,,,0.00,WUHU21623XXSP,2013-09-05 11:03:00,
2013-09-05 06:08:00,62.8,57.8,30.16,WNW,292,0.0,0.0,84,0.00,,,0.00,WUHU21623XXSP,2013-09-05 11:08:00,
2013-09-05 06:13:00,62.6,58.2,30.16,WNW,292,0.0,0.0,85,0.00,,,0.00,WUHU21623XXSP,2013-09-05 11:13:00,
2013-09-05 06:18:00,62.4,58.0,30.16,WNW,292,0.0,0.0,85,0.00,,,0.00,WUHU21623XXSP,2013-09-05 11:18:00,
2013-09-05 06:23:00,62.4,57.8,30.16,WNW,292,0.0,0.0,85,0.00,,,0.00,WUHU21623XXSP,2013-09-05 11:23:00,
2013-09-05 06:28:00,62.8,58.5,30.17,WNW,292,0.0,0.0,86,0.00,,,0.00,WUHU21623XXSP,2013-09-05 11:28:00,
2013-09-05 06:33:00,62.4,58.2,30.17,WNW,292,0.0,0.0,86,0.00,,,0.00,WUHU21623XXSP,2013-09-05 11:33:00,
2013-09-05 06:38:00,62.4,57.8,30.17,WNW,292,0.0,0.0,85,0.00,,,0.00,WUHU21623XXSP,2013-09-05 11:38:00,
2013-09-05 06:43:00,62.6,57.8,30.17,WNW,292,0.0,0.0,85,0.00,,,0.00,WUHU21623XXSP,2013-09-05 11:43:00,
2013-09-05 06:48:00,62.8,58.2,30.17,WNW,292,0.0,0.0,85,0.00,,,0.00,WUHU21623XXSP,2013-09-05 11:48:00,
2013-09-05 06:53:00,62.8,58.5,30.17,WNW,292,0.0,0.0,86,0.00,,,0.00,WUHU21623XXSP,2013-09-05 11:53:00,
2013-09-05 06:58:00,63.1,58.9,30.17,WNW,292,0.0,0.0,86,0.00,,,0.00,WUHU21623XXSP,2013-09-05 11:58:00,
2013-09-05 07:03:00,63.1,58.9,30.17,WNW,292,0.0,0.0,85,0.00,,,0.00,WUHU21623XXSP,2013-09-05 12:03:00,
2013-09-05 07:08:00,63.1,58.5,30.17,WNW,292,0.0,0.0,85,0.00,,,0.00,WUHU21623XXSP,2013-09-05 12:08:00,
2013-09-05 07:13:00,63.3,58.7,30.17,WNW,292,0.0,0.0,85,0.00,,,0.00,WUHU21623XXSP,2013-09-05 12:13:00,
2013-09-05 07:18:00,63.5,58.9,30.17,West,270,0.0,0.0,85,0.00,,,0.00,WUHU21623XXSP,2013-09-05 12:18:00,
2013-09-05 07:23:00,63.7,59.1,30.17,West,270,0.0,0.0,85,0.00,,,0.00,WUHU21623XXSP,2013-09-05 12:23:00,
2013-09-05 07:28:00,64.0,59.5,30.18,West,270,0.0,0.0,85,0.00,,,0.00,WUHU21623XXSP,2013-09-05 12:28:00,
2013-09-05 07:33:00,64.2,59.6,30.18,West,270,0.0,0.0,85,0.00,,,0.00,WUHU21623XXSP,2013-09-05 12:33:00,
2013-09-05 07:39:00,64.4,59.8,30.18,West,270,0.0,0.0,85,0.00,,,0.00,WUHU21623XXSP,2013-09-05 12:39:00,
2013-09-05 07:44:00,65.1,60.2,30.18,WNW,292,0.0,0.0,84,0.00,,,0.00,WUHU21623XXSP,2013-09-05 12:44:00,
2013-09-05 07:49:00,65.5,60.5,30.18,WNW,292,0.0,0.0,84,0.00,,,0.00,WUHU21623XXSP,2013-09-05 12:49:00,
2013-09-05 07:54:00,66.4,61.4,30.19,NW,315,0.0,0.0,84,0.00,,,0.00,WUHU21623XXSP,2013-09-05 12:54:00,
2013-09-05 07:59:00,66.9,61.4,30.19,NW,315,0.0,0.0,83,0.00,,,0.00,WUHU21623XXSP,2013-09-05 12:59:00,
2013-09-05 08:04:00,67.1,61.8,30.18,North,0,0.0,0.0,83,0.00,,,0.00,WUHU21623XXSP,2013-09-05 13:04:00,
2013-09-05 08:09:00,67.3,61.6,30.19,North,0,0.0,0.0,82,0.00,,,0.00,WUHU21623XXSP,2013-09-05 13:09:00,
2013-09-05 08:14:00,67.3,62.0,30.19,North,0,0.0,0.0,83,0.00,,,0.00,WUHU21623XXSP,2013-09-05 13:14:00,
2013-09-05 08:19:00,67.6,62.3,30.19,North,0,0.0,0.0,83,0.00,,,0.00,WUHU21623XXSP,2013-09-05 13:19:00,
2013-09-05 08:24:00,67.6,62.3,30.19,North,0,0.0,0.0,83,0.00,,,0.00,WUHU21623XXSP,2013-09-05 13:24:00,
2013-09-05 08:29:00,67.8,62.5,30.19,NNE,22,0.0,0.0,83,0.00,,,0.00,WUHU21623XXSP,2013-09-05 13:29:00,
2013-09-05 08:35:00,68.0,62.5,30.19,ENE,67,0.0,10.1,83,0.00,,,0.00,WUHU21623XXSP,2013-09-05 13:35:00,
2013-09-05 08:40:00,68.2,62.5,30.19,NE,45,6.5,10.1,82,0.00,,,0.00,WUHU21623XXSP,2013-09-05 13:40:00,
2013-09-05 08:45:00,68.5,62.5,30.19,East,90,3.1,8.1,81,0.00,,,0.00,WUHU21623XXSP,2013-09-05 13:45:00,
2013-09-05 08:50:00,68.7,62.7,30.19,ENE,67,0.0,8.5,81,0.00,,,0.00,WUHU21623XXSP,2013-09-05 13:50:00,
2013-09-05 08:55:00,68.7,63.0,30.19,NE,45,0.0,8.5,82,0.00,,,0.00,WUHU21623XXSP,2013-09-05 13:55:00,
2013-09-05 09:00:00,68.9,63.2,30.19,NE,45,5.1,5.1,82,0.00,,,0.00,WUHU21623XXSP,2013-09-05 14:00:00,
2013-09-05 09:05:00,69.1,63.0,30.19,ENE,67,9.2,9.2,81,0.00,,,0.00,WUHU21623XXSP,2013-09-05 14:05:00,
2013-09-05 09:10:00,69.4,63.0,30.19,East,90,0.0,9.2,80,0.00,,,0.00,WUHU21623XXSP,2013-09-05 14:10:00,
2013-09-05 09:15:00,69.6,62.8,30.20,ENE,67,0.0,9.2,79,0.00,,,0.00,WUHU21623XXSP,2013-09-05 14:15:00,
2013-09-05 09:20:00,69.8,62.8,30.20,East,90,0.0,0.0,79,0.00,,,0.00,WUHU21623XXSP,2013-09-05 14:20:00,
2013-09-05 09:25:00,70.2,63.1,30.20,NE,45,1.3,1.3,79,0.00,,,0.00,WUHU21623XXSP,2013-09-05 14:25:00,
2013-09-05 09:30:00,70.2,62.9,30.20,ENE,67,6.5,6.5,78,0.00,,,0.00,WUHU21623XXSP,2013-09-05 14:30:00,
2013-09-05 09:35:00,70.2,62.9,30.20,ENE,67,5.4,6.5,78,0.00,,,0.00,WUHU21623XXSP,2013-09-05 14:35:00,
2013-09-05 09:40:00,70.2,62.9,30.20,ENE,67,0.0,8.1,78,0.00,,,0.00,WUHU21623XXSP,2013-09-05 14:40:00,
2013-09-05 09:45:00,70.3,63.1,30.21,East,90,6.5,8.1,78,0.00,,,0.00,WUHU21623XXSP,2013-09-05 14:45:00,
2013-09-05 09:51:00,70.5,62.9,30.21,ENE,67,6.0,6.5,77,0.00,,,0.00,WUHU21623XXSP,2013-09-05 14:51:00,
2013-09-05 09:56:00,70.5,62.5,30.21,ENE,67,5.4,9.8,76,0.00,,,0.00,WUHU21623XXSP,2013-09-05 14:56:00,
2013-09-05 10:01:00,70.7,62.7,30.21,ENE,67,1.1,9.8,76,0.00,,,0.00,WUHU21623XXSP,2013-09-05 15:01:00,
2013-09-05 10:06:00,71.2,62.9,30.21,East,90,8.1,8.1,75,0.00,,,0.00,WUHU21623XXSP,2013-09-05 15:06:00,
2013-09-05 10:11:00,71.2,62.5,30.21,ENE,67,0.0,8.1,74,0.00,,,0.00,WUHU21623XXSP,2013-09-05 15:11:00,
2013-09-05 10:16:00,71.2,62.9,30.22,NE,45,0.0,8.1,75,0.00,,,0.00,WUHU21623XXSP,2013-09-05 15:16:00,
2013-09-05 10:21:00,71.4,63.0,30.22,NE,45,0.0,0.0,75,0.00,,,0.00,WUHU21623XXSP,2013-09-05 15:21:00,
2013-09-05 10:26:00,71.2,62.5,30.22,ENE,67,0.0,8.7,74,0.00,,,0.00,WUHU21623XXSP,2013-09-05 15:26:00,
2013-09-05 10:31:00,71.2,62.9,30.22,East,90,0.7,8.7,75,0.00,,,0.00,WUHU21623XXSP,2013-09-05 15:31:00,
2013-09-05 10:36:00,71.4,62.7,30.22,SE,135,4.5,7.8,74,0.00,,,0.00,WUHU21623XXSP,2013-09-05 15:36:00,
2013-09-05 10:41:00,71.8,63.0,30.22,ENE,67,3.6,7.8,74,0.00,,,0.00,WUHU21623XXSP,2013-09-05 15:41:00,
2013-09-05 10:46:00,72.0,63.2,30.22,SE,135,6.5,6.7,74,0.00,,,0.00,WUHU21623XXSP,2013-09-05 15:46:00,
2013-09-05 10:51:00,72.3,63.0,30.22,SE,135,6.5,6.7,74,0.00,,,0.00,WUHU21623XXSP,2013-09-05 15:51:00,
2013-09-05 10:56:00,72.3,63.2,30.22,ENE,67,6.0,6.5,73,0.00,,,0.00,WUHU21623XXSP,2013-09-05 15:56:00,
2013-09-05 11:01:00,72.5,63.2,30.22,ENE,67,0.0,6.0,73,0.00,,,0.00,WUHU21623XXSP,2013-09-05 16:01:00,
2013-09-05 11:06:00,72.5,63.4,30.22,ESE,112,6.9,8.7,73,0.00,,,0.00,WUHU21623XXSP,2013-09-05 16:06:00,
2013-09-05 11:11:00,72.3,63.4,30.22,ENE,67,3.6,8.7,73,0.00,,,0.00,WUHU21623XXSP,2013-09-05 16:11:00,
2013-09-05 11:16:00,72.3,63.2,30.22,NE,45,5.8,7.2,73,0.00,,,0.00,WUHU21623XXSP,2013-09-05 16:16:00,
2013-09-05 11:21:00,72.5,63.4,30.22,ENE,67,8.5,8.5,73,0.00,,,0.00,WUHU21623XXSP,2013-09-05 16:21:00,
2013-09-05 11:26:00,72.5,63.4,30.22,NNE,22,0.0,8.5,73,0.00,,,0.00,WUHU21623XXSP,2013-09-05 16:26:00,
2013-09-05 11:31:00,72.7,63.6,30.23,NE,45,0.0,8.5,73,0.00,,,0.00,WUHU21623XXSP,2013-09-05 16:31:00,
2013-09-05 11:36:00,72.7,63.6,30.22,ENE,67,3.1,9.6,73,0.00,,,0.00,WUHU21623XXSP,2013-09-05 16:36:00,
2013-09-05 11:41:00,72.7,63.6,30.22,ENE,67,3.1,9.6,73,0.00,,,0.00,WUHU21623XXSP,2013-09-05 16:41:00,
2013-09-05 11:46:00,73.0,63.9,30.22,East,90,5.4,8.3,73,0.00,,,0.00,WUHU21623XXSP,2013-09-05 16:46:00,
2013-09-05 11:51:00,72.9,63.4,30.22,East,90,6.7,8.3,73,0.00,,,0.00,WUHU21623XXSP,2013-09-05 16:51:00,
2013-09-05 11:57:00,72.7,63.6,30.23,ESE,112,0.2,7.8,73,0.00,,,0.00,WUHU21623XXSP,2013-09-05 16:57:00,
2013-09-05 12:02:00,72.9,63.4,30.23,SE,135,2.5,5.6,72,0.00,,,0.00,WUHU21623XXSP,2013-09-05 17:02:00,
2013-09-05 12:07:00,73.2,63.7,30.23,East,90,7.6,7.6,72,0.00,,,0.00,WUHU21623XXSP,2013-09-05 17:07:00,
2013-09-05 12:12:00,73.6,63.7,30.23,East,90,6.0,7.6,71,0.00,,,0.00,WUHU21623XXSP,2013-09-05 17:12:00,
2013-09-05 12:17:00,73.6,63.3,30.22,East,90,0.0,6.0,70,0.00,,,0.00,WUHU21623XXSP,2013-09-05 17:17:00,
2013-09-05 12:22:00,73.8,63.5,30.22,East,90,6.3,8.1,70,0.00,,,0.00,WUHU21623XXSP,2013-09-05 17:22:00,
2013-09-05 12:27:00,74.1,63.8,30.23,East,90,0.0,8.1,70,0.00,,,0.00,WUHU21623XXSP,2013-09-05 17:27:00,
2013-09-05 12:32:00,74.5,63.2,30.23,ESE,112,1.3,1.3,68,0.00,,,0.00,WUHU21623XXSP,2013-09-05 17:32:00,
2013-09-05 12:37:00,74.5,63.2,30.22,ESE,112,2.5,2.5,68,0.00,,,0.00,WUHU21623XXSP,2013-09-05 17:37:00,
2013-09-05 12:42:00,74.8,63.6,30.22,ENE,67,7.4,7.4,68,0.00,,,0.00,WUHU21623XXSP,2013-09-05 17:42:00,
2013-09-05 12:47:00,75.2,63.9,30.22,ESE,112,0.0,7.4,68,0.00,,,0.00,WUHU21623XXSP,2013-09-05 17:47:00,
2013-09-05 12:52:00,75.9,64.0,30.22,East,90,0.0,5.1,67,0.00,,,0.00,WUHU21623XXSP,2013-09-05 17:52:00,
2013-09-05 12:57:00,76.3,64.5,30.22,ENE,67,0.0,0.0,66,0.00,,,0.00,WUHU21623XXSP,2013-09-05 17:57:00,
2013-09-05 13:02:00,76.6,64.0,30.21,ENE,67,0.0,7.4,65,0.00,,,0.00,WUHU21623XXSP,2013-09-05 18:02:00,
2013-09-05 13:07:00,76.6,64.1,30.22,North,0,0.0,7.4,65,0.00,,,0.00,WUHU21623XXSP,2013-09-05 18:07:00,
2013-09-05 13:12:00,77.2,64.9,30.22,SE,135,0.0,0.0,66,0.00,,,0.00,WUHU21623XXSP,2013-09-05 18:12:00,
2013-09-05 13:17:00,79.2,65.0,30.22,ESE,112,0.0,0.0,62,0.00,,,0.00,WUHU21623XXSP,2013-09-05 18:17:00,
2013-09-05 13:22:00,79.7,64.9,30.21,ESE,112,0.0,0.0,62,0.00,,,0.00,WUHU21623XXSP,2013-09-05 18:22:00,
2013-09-05 13:27:00,79.7,64.5,30.21,ENE,67,3.8,3.8,60,0.00,,,0.00,WUHU21623XXSP,2013-09-05 18:27:00,
2013-09-05 13:32:00,79.9,63.8,30.21,ESE,112,7.4,7.4,58,0.00,,,0.00,WUHU21623XXSP,2013-09-05 18:32:00,
2013-09-05 13:37:00,79.7,63.6,30.21,ENE,67,0.0,7.6,58,0.00,,,0.00,WUHU21623XXSP,2013-09-05 18:37:00,
2013-09-05 13:42:00,78.6,63.2,30.21,NNE,22,0.0,7.6,59,0.00,,,0.00,WUHU21623XXSP,2013-09-05 18:42:00,
2013-09-05 13:47:00,78.6,62.6,30.21,ENE,67,0.0,4.9,58,0.00,,,0.00,WUHU21623XXSP,2013-09-05 18:47:00,
2013-09-05 13:52:00,78.6,62.6,30.21,ENE,67,0.0,4.9,58,0.00,,,0.00,WUHU21623XXSP,2013-09-05 18:52:00,
2013-09-05 13:57:00,78.6,62.1,30.21,NNW,337,8.3,8.3,57,0.00,,,0.00,WUHU21623XXSP,2013-09-05 18:57:00,
2013-09-05 14:02:00,78.6,62.1,30.21,NNE,22,0.0,8.3,57,0.00,,,0.00,WUHU21623XXSP,2013-09-05 19:02:00,
2013-09-05 14:08:00,79.0,62.5,30.21,North,0,0.0,6.0,57,0.00,,,0.00,WUHU21623XXSP,2013-09-05 19:08:00,
2013-09-05 14:13:00,78.6,61.4,30.21,NNW,337,0.0,6.0,55,0.00,,,0.00,WUHU21623XXSP,2013-09-05 19:13:00,
2013-09-05 14:18:00,78.4,60.9,30.21,NNE,22,7.2,7.2,55,0.00,,,0.00,WUHU21623XXSP,2013-09-05 19:18:00,
2013-09-05 14:23:00,78.4,60.6,30.20,North,0,3.1,7.2,55,0.00,,,0.00,WUHU21623XXSP,2013-09-05 19:23:00,
2013-09-05 14:28:00,78.4,61.4,30.20,North,0,0.0,5.4,56,0.00,,,0.00,WUHU21623XXSP,2013-09-05 19:28:00,
2013-09-05 14:33:00,78.6,61.6,30.20,NE,45,4.9,5.4,56,0.00,,,0.00,WUHU21623XXSP,2013-09-05 19:33:00,
2013-09-05 14:38:00,78.6,61.1,30.20,North,0,0.0,6.9,55,0.00,,,0.00,WUHU21623XXSP,2013-09-05 19:38:00,
2013-09-05 14:43:00,78.4,60.9,30.20,NE,45,0.0,6.9,55,0.00,,,0.00,WUHU21623XXSP,2013-09-05 19:43:00,
2013-09-05 14:48:00,79.0,61.4,30.20,NE,45,6.7,6.9,55,0.00,,,0.00,WUHU21623XXSP,2013-09-05 19:48:00,
2013-09-05 14:53:00,79.2,61.6,30.20,NNW,337,5.6,6.7,55,0.00,,,0.00,WUHU21623XXSP,2013-09-05 19:53:00,
2013-09-05 14:58:00,79.0,61.4,30.20,North,0,0.0,5.6,55,0.00,,,0.00,WUHU21623XXSP,2013-09-05 19:58:00,
2013-09-05 15:04:00,79.2,61.6,30.20,North,0,8.3,8.3,55,0.00,,,0.00,WUHU21623XXSP,2013-09-05 20:04:00,
2013-09-05 15:09:00,79.2,61.6,30.20,NE,45,8.7,8.7,54,0.00,,,0.00,WUHU21623XXSP,2013-09-05 20:09:00,
2013-09-05 15:14:00,79.0,60.9,30.19,WSW,247,7.2,8.7,54,0.00,,,0.00,WUHU21623XXSP,2013-09-05 20:14:00,
2013-09-05 15:19:00,78.6,61.1,30.19,North,0,7.6,7.6,55,0.00,,,0.00,WUHU21623XXSP,2013-09-05 20:19:00,
2013-09-05 15:24:00,78.4,60.9,30.19,NE,45,0.0,7.6,55,0.00,,,0.00,WUHU21623XXSP,2013-09-05 20:24:00,
2013-09-05 15:29:00,78.4,60.9,30.19,NNW,337,0.0,6.7,55,0.00,,,0.00,WUHU21623XXSP,2013-09-05 20:29:00,
2013-09-05 15:34:00,78.6,61.1,30.19,ENE,67,4.7,4.9,55,0.00,,,0.00,WUHU21623XXSP,2013-09-05 20:34:00,
2013-09-05 15:39:00,78.6,61.1,30.19,NE,45,5.6,5.6,55,0.00,,,0.00,WUHU21623XXSP,2013-09-05 20:39:00,
2013-09-05 15:44:00,78.6,61.1,30.19,ENE,67,6.7,6.7,55,0.00,,,0.00,WUHU21623XXSP,2013-09-05 20:44:00,
2013-09-05 15:49:00,79.0,61.4,30.19,NE,45,2.0,6.7,55,0.00,,,0.00,WUHU21623XXSP,2013-09-05 20:49:00,
2013-09-05 15:54:00,78.8,61.3,30.19,NNE,22,0.2,2.5,55,0.00,,,0.00,WUHU21623XXSP,2013-09-05 20:54:00,
2013-09-05 15:59:00,78.6,61.3,30.19,ENE,67,0.0,1.8,55,0.00,,,0.00,WUHU21623XXSP,2013-09-05 20:59:00,
2013-09-05 16:04:00,78.6,61.1,30.19,NE,45,7.6,7.6,55,0.00,,,0.00,WUHU21623XXSP,2013-09-05 21:04:00,
2013-09-05 16:09:00,79.0,60.4,30.19,North,0,2.5,7.8,53,0.00,,,0.00,WUHU21623XXSP,2013-09-05 21:09:00,
2013-09-05 16:14:00,78.6,60.5,30.19,NNE,22,7.4,7.8,54,0.00,,,0.00,WUHU21623XXSP,2013-09-05 21:14:00,
2013-09-05 16:19:00,78.4,60.4,30.19,NE,45,4.7,10.3,54,0.00,,,0.00,WUHU21623XXSP,2013-09-05 21:19:00,
2013-09-05 16:24:00,77.9,60.0,30.19,NE,45,5.6,10.3,54,0.00,,,0.00,WUHU21623XXSP,2013-09-05 21:24:00,
2013-09-05 16:29:00,77.5,59.5,30.19,NE,45,7.8,7.8,54,0.00,,,0.00,WUHU21623XXSP,2013-09-05 21:29:00,
2013-09-05 16:34:00,76.8,59.7,30.19,NE,45,0.0,7.8,55,0.00,,,0.00,WUHU21623XXSP,2013-09-05 21:34:00,
2013-09-05 16:39:00,76.6,59.4,30.19,NE,45,0.0,0.0,55,0.00,,,0.00,WUHU21623XXSP,2013-09-05 21:39:00,
2013-09-05 16:44:00,76.1,59.2,30.19,ENE,67,0.0,3.8,56,0.00,,,0.00,WUHU21623XXSP,2013-09-05 21:44:00,
2013-09-05 16:49:00,75.9,59.1,30.19,NNE,22,5.1,5.1,56,0.00,,,0.00,WUHU21623XXSP,2013-09-05 21:49:00,
2013-09-05 16:54:00,76.3,59.4,30.19,WSW,247,5.4,11.2,56,0.00,,,0.00,WUHU21623XXSP,2013-09-05 21:54:00,
2013-09-05 16:59:00,77.0,59.5,30.19,North,0,0.0,11.2,55,0.00,,,0.00,WUHU21623XXSP,2013-09-05 21:59:00,
2013-09-05 17:05:00,76.8,58.4,30.19,NNE,22,11.0,11.0,53,0.00,,,0.00,WUHU21623XXSP,2013-09-05 22:05:00,
2013-09-05 17:10:00,76.5,58.5,30.19,NE,45,7.2,11.0,54,0.00,,,0.00,WUHU21623XXSP,2013-09-05 22:10:00,
2013-09-05 17:15:00,75.9,58.1,30.19,NNW,337,9.2,11.0,54,0.00,,,0.00,WUHU21623XXSP,2013-09-05 22:15:00,
2013-09-05 17:20:00,75.7,57.9,30.19,NNE,22,0.0,9.2,55,0.00,,,0.00,WUHU21623XXSP,2013-09-05 22:20:00,
2013-09-05 17:25:00,75.6,57.7,30.19,NE,45,7.2,9.2,54,0.00,,,0.00,WUHU21623XXSP,2013-09-05 22:25:00,
2013-09-05 17:30:00,75.0,57.4,30.19,NNE,22,0.0,7.2,54,0.00,,,0.00,WUHU21623XXSP,2013-09-05 22:30:00,
2013-09-05 17:35:00,74.8,57.7,30.19,NE,45,0.0,6.7,55,0.00,,,0.00,WUHU21623XXSP,2013-09-05 22:35:00,
2013-09-05 17:40:00,74.5,57.2,30.19,NE,45,9.6,9.6,55,0.00,,,0.00,WUHU21623XXSP,2013-09-05 22:40:00,
2013-09-05 17:45:00,74.1,57.0,30.19,NE,45,6.9,9.6,55,0.00,,,0.00,WUHU21623XXSP,2013-09-05 22:45:00,
2013-09-05 17:50:00,73.9,56.7,30.19,NE,45,0.0,6.9,55,0.00,,,0.00,WUHU21623XXSP,2013-09-05 22:50:00,
2013-09-05 17:55:00,73.8,56.5,30.19,NNE,22,0.0,2.2,55,0.00,,,0.00,WUHU21623XXSP,2013-09-05 22:55:00,
2013-09-05 18:00:00,73.6,57.3,30.19,NE,45,0.0,2.2,57,0.00,,,0.00,WUHU21623XXSP,2013-09-05 23:00:00,
2013-09-05 18:05:00,73.6,57.3,30.19,NNW,337,7.6,7.6,57,0.00,,,0.00,WUHU21623XXSP,2013-09-05 23:05:00,
2013-09-05 18:10:00,73.2,57.0,30.19,NE,45,0.0,8.7,57,0.00,,,0.00,WUHU21623XXSP,2013-09-05 23:10:00,
2013-09-05 18:15:00,73.2,57.0,30.19,NNE,22,0.0,8.7,57,0.00,,,0.00,WUHU21623XXSP,2013-09-05 23:15:00,
2013-09-05 18:20:00,73.0,56.8,30.19,NE,45,0.0,0.0,57,0.00,,,0.00,WUHU21623XXSP,2013-09-05 23:20:00,
2013-09-05 18:25:00,72.7,56.6,30.19,NE,45,0.0,0.0,56,0.00,,,0.00,WUHU21623XXSP,2013-09-05 23:25:00,
2013-09-05 18:30:00,72.7,56.0,30.18,NE,45,3.8,3.8,56,0.00,,,0.00,WUHU21623XXSP,2013-09-05 23:30:00,
2013-09-05 18:35:00,72.3,56.2,30.18,ENE,67,0.0,3.8,57,0.00,,,0.00,WUHU21623XXSP,2013-09-05 23:35:00,
2013-09-05 18:40:00,72.0,55.8,30.18,NE,45,0.0,0.7,57,0.00,,,0.00,WUHU21623XXSP,2013-09-05 23:40:00,
2013-09-05 18:45:00,71.8,55.7,30.19,NW,315,0.0,0.0,57,0.00,,,0.00,WUHU21623XXSP,2013-09-05 23:45:00,
2013-09-05 18:50:00,71.4,55.9,30.18,NE,45,8.1,8.1,58,0.00,,,0.00,WUHU21623XXSP,2013-09-05 23:50:00,
2013-09-05 18:55:00,71.2,55.7,30.19,NE,45,0.0,8.1,58,0.00,,,0.00,WUHU21623XXSP,2013-09-05 23:55:00,
2013-09-05 19:00:00,70.7,55.2,30.19,NE,45,2.0,4.9,58,0.00,,,0.00,WUHU21623XXSP,2013-09-06 00:00:00,
2013-09-05 19:05:00,70.3,55.0,30.19,NE,45,2.0,2.0,58,0.00,,,0.00,WUHU21623XXSP,2013-09-06 00:05:00,
2013-09-05 19:10:00,69.8,54.4,30.19,NE,45,0.0,2.0,58,0.00,,,0.00,WUHU21623XXSP,2013-09-06 00:10:00,
2013-09-05 19:15:00,69.6,54.7,30.19,NNE,22,0.0,2.0,59,0.00,,,0.00,WUHU21623XXSP,2013-09-06 00:15:00,
2013-09-05 19:20:00,69.1,54.2,30.19,NNE,22,0.0,0.0,59,0.00,,,0.00,WUHU21623XXSP,2013-09-06 00:20:00,
2013-09-05 19:25:00,68.7,54.3,30.19,NNE,22,2.0,2.0,60,0.00,,,0.00,WUHU21623XXSP,2013-09-06 00:25:00,
2013-09-05 19:34:00,68.5,54.1,30.18,NNE,22,0.0,2.0,60,0.00,,,0.00,WUHU21623XXSP,2013-09-06 00:34:00,
2013-09-05 19:39:00,67.8,53.9,30.19,NNE,22,0.0,1.1,61,0.00,,,0.00,WUHU21623XXSP,2013-09-06 00:39:00,
2013-09-05 19:44:00,67.3,53.4,30.19,NNE,22,0.0,0.0,61,0.00,,,0.00,WUHU21623XXSP,2013-09-06 00:44:00,
2013-09-05 19:49:00,66.9,53.5,30.20,NE,45,0.0,0.0,62,0.00,,,0.00,WUHU21623XXSP,2013-09-06 00:49:00,
2013-09-05 19:54:00,66.6,53.3,30.20,NNE,22,0.0,0.0,62,0.00,,,0.00,WUHU21623XXSP,2013-09-06 00:54:00,
2013-09-05 19:59:00,66.2,52.6,30.19,NNE,22,0.0,0.0,61,0.00,,,0.00,WUHU21623XXSP,2013-09-06 00:59:00,
2013-09-05 20:04:00,66.0,52.2,30.19,NNE,22,0.0,3.6,60,0.00,,,0.00,WUHU21623XXSP,2013-09-06 01:04:00,
2013-09-05 20:09:00,65.8,51.1,30.20,NNE,22,0.0,3.6,59,0.00,,,0.00,WUHU21623XXSP,2013-09-06 01:09:00,
2013-09-05 20:14:00,65.7,51.0,30.19,NE,45,0.0,0.0,59,0.00,,,0.00,WUHU21623XXSP,2013-09-06 01:14:00,
2013-09-05 20:19:00,65.5,50.8,30.20,NE,45,0.0,0.0,59,0.00,,,0.00,WUHU21623XXSP,2013-09-06 01:19:00,
2013-09-05 20:24:00,65.1,50.4,30.20,NE,45,0.0,0.0,59,0.00,,,0.00,WUHU21623XXSP,2013-09-06 01:24:00,
2013-09-05 20:29:00,64.9,50.2,30.20,NE,45,0.0,0.0,59,0.00,,,0.00,WUHU21623XXSP,2013-09-06 01:29:00,
2013-09-05 20:34:00,64.6,50.1,30.20,NE,45,0.0,0.0,59,0.00,,,0.00,WUHU21623XXSP,2013-09-06 01:34:00,
2013-09-05 20:39:00,64.2,50.0,30.20,NNE,22,0.0,0.0,60,0.00,,,0.00,WUHU21623XXSP,2013-09-06 01:39:00,
2013-09-05 20:44:00,64.2,50.0,30.21,NNE,22,0.0,0.0,60,0.00,,,0.00,WUHU21623XXSP,2013-09-06 01:44:00,
2013-09-05 20:49:00,64.0,49.9,30.21,NNE,22,0.0,0.0,60,0.00,,,0.00,WUHU21623XXSP,2013-09-06 01:49:00,
2013-09-05 20:54:00,63.7,49.5,30.20,NNE,22,0.0,0.0,60,0.00,,,0.00,WUHU21623XXSP,2013-09-06 01:54:00,
2013-09-05 20:59:00,63.3,49.4,30.21,NNE,22,0.0,0.0,60,0.00,,,0.00,WUHU21623XXSP,2013-09-06 01:59:00,
2013-09-05 21:04:00,63.3,49.6,30.21,NNE,22,0.0,0.0,61,0.00,,,0.00,WUHU21623XXSP,2013-09-06 02:04:00,
2013-09-05 21:09:00,63.1,49.5,30.21,NNE,22,0.0,0.0,61,0.00,,,0.00,WUHU21623XXSP,2013-09-06 02:09:00,
2013-09-05 21:14:00,62.8,49.5,30.21,NNE,22,0.0,0.0,62,0.00,,,0.00,WUHU21623XXSP,2013-09-06 02:14:00,
2013-09-05 21:20:00,62.6,49.4,30.21,NNE,22,0.0,0.0,62,0.00,,,0.00,WUHU21623XXSP,2013-09-06 02:20:00,
2013-09-05 21:25:00,62.4,49.6,30.21,NNE,22,0.0,0.0,63,0.00,,,0.00,WUHU21623XXSP,2013-09-06 02:25:00,
2013-09-05 21:30:00,62.2,49.5,30.21,NNE,22,0.0,0.0,63,0.00,,,0.00,WUHU21623XXSP,2013-09-06 02:30:00,
2013-09-05 21:35:00,62.1,49.3,30.21,NNE,22,0.0,0.0,63,0.00,,,0.00,WUHU21623XXSP,2013-09-06 02:35:00,
2013-09-05 21:40:00,62.1,49.7,30.21,NNE,22,0.0,0.0,64,0.00,,,0.00,WUHU21623XXSP,2013-09-06 02:40:00,
2013-09-05 21:45:00,61.5,49.4,30.21,NNE,22,0.0,0.0,65,0.00,,,0.00,WUHU21623XXSP,2013-09-06 02:45:00,
2013-09-05 21:50:00,61.5,49.7,30.21,NNE,22,0.0,0.0,66,0.00,,,0.00,WUHU21623XXSP,2013-09-06 02:50:00,
2013-09-05 21:55:00,61.3,49.9,30.21,NNE,22,0.0,0.0,66,0.00,,,0.00,WUHU21623XXSP,2013-09-06 02:55:00,
2013-09-05 22:00:00,61.3,49.9,30.21,NNE,22,0.0,0.0,66,0.00,,,0.00,WUHU21623XXSP,2013-09-06 03:00:00,
2013-09-05 22:05:00,61.2,49.7,30.21,NNE,22,0.0,0.0,66,0.00,,,0.00,WUHU21623XXSP,2013-09-06 03:05:00,
2013-09-05 22:10:00,61.2,50.2,30.21,NNE,22,0.0,0.0,67,0.00,,,0.00,WUHU21623XXSP,2013-09-06 03:10:00,
2013-09-05 22:15:00,61.0,50.2,30.21,NNE,22,0.0,0.0,67,0.00,,,0.00,WUHU21623XXSP,2013-09-06 03:15:00,
2013-09-05 22:20:00,61.0,50.4,30.21,NNE,22,0.0,0.0,68,0.00,,,0.00,WUHU21623XXSP,2013-09-06 03:20:00,
2013-09-05 22:25:00,60.6,50.4,30.21,NNE,22,0.0,0.0,68,0.00,,,0.00,WUHU21623XXSP,2013-09-06 03:25:00,
2013-09-05 22:30:00,60.6,50.1,30.21,NNE,22,0.0,0.0,68,0.00,,,0.00,WUHU21623XXSP,2013-09-06 03:30:00,
2013-09-05 22:35:00,60.4,50.3,30.21,NNE,22,0.0,0.0,69,0.00,,,0.00,WUHU21623XXSP,2013-09-06 03:35:00,
2013-09-05 22:40:00,60.4,50.3,30.21,NNE,22,0.0,0.0,69,0.00,,,0.00,WUHU21623XXSP,2013-09-06 03:40:00,
2013-09-05 22:45:00,60.3,50.3,30.21,NNE,22,0.0,0.0,69,0.00,,,0.00,WUHU21623XXSP,2013-09-06 03:45:00,
2013-09-05 22:50:00,60.1,49.9,30.21,NNE,22,0.0,0.0,69,0.00,,,0.00,WUHU21623XXSP,2013-09-06 03:50:00,
2013-09-05 22:55:00,60.1,50.4,30.21,NNE,22,0.0,0.0,70,0.00,,,0.00,WUHU21623XXSP,2013-09-06 03:55:00,
2013-09-05 23:00:00,59.9,50.2,30.21,NNE,22,0.0,0.0,70,0.00,,,0.00,WUHU21623XXSP,2013-09-06 04:00:00,
2013-09-05 23:01:00,59.9,50.2,30.21,NNE,22,0.0,0.0,70,0.00,,,0.00,WUHU21623XXSP,2013-09-06 04:01:00,
2013-09-05 23:03:00,59.9,50.2,30.21,NNE,22,0.0,0.0,70,0.00,,,0.00,WUHU21623XXSP,2013-09-06 04:03:00,
2013-09-05 23:08:00,59.9,50.2,30.21,NNE,22,0.0,0.0,70,0.00,,,0.00,WUHU21623XXSP,2013-09-06 04:08:00,
2013-09-05 23:13:00,59.7,50.4,30.21,NNE,22,0.0,0.0,71,0.00,,,0.00,WUHU21623XXSP,2013-09-06 04:13:00,
2013-09-05 23:18:00,59.7,50.4,30.21,NNE,22,0.0,0.0,71,0.00,,,0.00,WUHU21623XXSP,2013-09-06 04:18:00,
2013-09-05 23:23:00,59.5,50.2,30.21,NNE,22,0.0,0.0,71,0.00,,,0.00,WUHU21623XXSP,2013-09-06 04:23:00,
2013-09-05 23:28:00,59.5,50.2,30.21,NNE,22,0.0,0.0,72,0.00,,,0.00,WUHU21623XXSP,2013-09-06 04:28:00,
2013-09-05 23:33:00,59.5,50.5,30.21,NNE,22,0.0,0.0,72,0.00,,,0.00,WUHU21623XXSP,2013-09-06 04:33:00,
2013-09-05 23:38:00,59.4,50.4,30.21,NNE,22,0.0,0.0,72,0.00,,,0.00,WUHU21623XXSP,2013-09-06 04:38:00,
2013-09-05 23:43:00,59.5,50.4,30.21,NNE,22,0.0,0.0,72,0.00,,,0.00,WUHU21623XXSP,2013-09-06 04:43:00,
2013-09-05 23:48:00,59.4,50.4,30.21,NNE,22,0.0,0.0,72,0.00,,,0.00,WUHU21623XXSP,2013-09-06 04:48:00,
2013-09-05 23:53:00,59.4,50.4,30.22,NNE,22,0.0,0.0,72,0.00,,,0.00,WUHU21623XXSP,2013-09-06 04:53:00,
2013-09-05 23:58:00,59.5,50.4,30.22,NNE,22,0.0,0.0,73,0.00,,,0.00,WUHU21623XXSP,2013-09-06 04:58:00,